Location: Baumgarten
(49.0970°N, 12.7493°E)
Time: 08:22:06
(UTC+00:00)

Cosmos 1295 Rocket - Pass Details

Date: 05 July 2020
Orbit: 943 x 994 km, 82.9° (Epoch: 04 August)

Event Time Altitude Azimuth Distance (km) Brightness Sun altitude
Exits shadow 22:06:28 23° 185° (S) 1,895 5.5 -16.7°
Maximum altitude 22:10:28 86° 99° (E) 963 4.4 -16.9°
Drops below altitude 10° 22:16:36 10° 10° (N) 2,680 7.8 -17.1°
Sets 22:19:05 0° 10° (N) 3,626 8.7 -17.2°
